STARLINK-33740, 63451

Orbit data source: Space-Track

STARLINK-33740, 63451 is a payload satellite owned by SpaceX/Seattle (US) in LEO that was launched on Fri, 04 Apr 2025 UTC via an FALCON 9 launch vehicle from the Air Force Western Test Range (AFWTR). Payload-class satellites include a variety of spacecraft equipped with specific instruments for various scientific and technological missions. These include communications satellites like Starlink; space stations such as the ISS; scientific satellites like the Hubble; Earth observation satellites from companies like Planet Labs, Umbra, and HawkEye 360; GPS; miniature CubeSats for education and research; and military/defense satellites.

Loading next visibility...
Identifier
63451, 2025-069U
Orbit
LEO
Country
Flag of USUS
Related business
Manufacturer
SpaceX/Seattle
Mission
Operational Commercial Communications
Bus & Motor
STARLINK V2MO, Unknown motor
Mass
575 kg wet, ~530 kg dry
Launch date (UTC)
2025-04-04 (1 year ago)
Launch vehicle
FALCON 9
Launch site
Air Force Western Test Range (AFWTR)
Object type
Payload
Rocket body
Debris
Shape & HBR
Box + 2 Pan, 17.7 m
Radar Cross Section
36.964 m², Large (>1 m²)

Expand to show TLE details & history
Last TLE update: 8 hours ago

TLE from 8 hours ago
0 STARLINK-33740
1 63451U 25069U   26145.39375907  .00026006  00000-0  60463-3 0  9998
2 63451  53.1593 143.6919 0001474  89.3375 270.7799 15.42179829 65078
Epoch: 2026-05-25T09:27Z
TLE epoch observation values (Epoch: 2026-05-25T09:27:00.783Z)
Latitude
-0.0001°
Longitude
118.95638°
Altitude
440.568 km
Speed
7.649 km/s
True Right ascension
09h 34m 46s
True Declination
0° 00' 00"
Sunlit
Object was in daylight at epoch
Visualization orbit readout
Latitude
Unknown
Longitude
Unknown
Altitude
Unknown
Speed
Unknown
Apparent Right ascension
Unknown
Apparent Declination
Unknown
Sunlit
N/A
Visualization observer readout
Local Sidereal Time
03:04:53
Azimuth
Unknown
Elevation
Unknown
Doppler factor
Unknown
Orbital elements
Apogee altitude
440.94 km
Perigee altitude
438.93 km
Semi-major axis
6,818.072 km
Eccentricity
0.00015
Inclination
53.1593°
RAAN
143.6919°
Arg. of periapsis
89.3375°
True anomaly
270.76301°
Mean anomaly
270.7799°
Eccentric anomaly
270.77146°
Mean motion
3.85523 °/min
Orbital period
93.38 mins
BSTAR
0.00060463
Loading maneuver chart data...
Computing Atmospheric mass density...
Loading historical data...
Loading historical data...
Loading historical data...
Loading historical data...
Loading historical data...
Loading historical data...
Loading historical data...

Documentation

Showing up to 5 results
|